Temperature
11 11 10 10 9 8 7 7 6 6 5 5 4 3 3 2 2 1 1 1 0 -0 -1 -2 -3 -4 -5 -5 -5 -6 -6 -6 -6 -6 -6 -6 -6 -6 -6 -6 -7 -7 -7
10 10 9 8 8 7 6 6 5 5 4 3 3 2 2 2 1 1 0 -0 -1 -2 -3 -4 -5 -5 -6 -6 -6 -6 -6 -6 -6 -7 -6 -6 -6 -6 -7 -7 -7 -7 -8
9 9 8 7 7 6 5 5 4 4 3 3 2 2 1 1 1 -0 -1 -1 -2 -3 -4 -5 -5 -6 -6 -7 -7 -7 -7 -7 -7 -7 -7 -7 -7 -7 -7 -8 -8 -8 -8
8 7 7 6 6 5 5 4 4 3 2 2 2 1 1 0 -0 -1 -1 -2 -3 -4 -5 -5 -6 -6 -7 -7 -7 -7 -7 -7 -7 -7 -7 -7 -7 -7 -8 -8 -9 -9 -9
7 6 6 5 5 4 4 3 3 2 2 1 1 1 -0 -1 -1 -2 -3 -4 -4 -5 -5 -6 -6 -7 -7 -7 -7 -7 -8 -8 -7 -7 -7 -7 -8 -8 -9 -9 -9 -9 -9
6 5 5 4 4 3 3 2 2 1 1 1 0 -0 -1 -1 -2 -3 -4 -5 -5 -6 -6 -6 -7 -7 -8 -8 -8 -8 -8 -8 -8 -8 -8 -8 -9 -9 -9 -9 -9 -9 -10
5 4 4 3 3 2 2 1 1 1 0 -0 -1 -1 -2 -2 -3 -4 -5 -6 -6 -7 -7 -7 -8 -8 -8 -8 -8 -8 -8 -8 -8 -9 -9 -9 -10 -10 -10 -10 -10 -10 -10
4 3 3 2 2 2 1 0 0 -0 -1 -1 -2 -2 -3 -3 -4 -5 -7 -7 -7 -7 -8 -8 -8 -8 -8 -8 -8 -8 -8 -8 -9 -9 -10 -10 -10 -10 -10 -10 -10 -11 -11
3 2 2 2 1 1 0 -0 -1 -1 -1 -2 -2 -3 -3 -4 -5 -7 -8 -8 -8 -8 -8 -8 -8 -8 -8 -8 -8 -8 -9 -9 -10 -10 -10 -10 -10 -10 -11 -11 -11 -11 -11
2 2 1 1 1 0 -0 -1 -1 -2 -2 -3 -3 -3 -4 -5 -7 -8 -8 -9 -9 -8 -8 -8 -8 -9 -8 -8 -9 -9 -10 -10 -10 -10 -10 -10 -10 -10 -11 -11 -11 -11 -11
1 1 1 0 -0 -1 -1 -2 -2 -3 -3 -3 -3 -4 -5 -6 -8 -8 -9 -9 -8 -8 -9 -9 -9 -9 -9 -9 -10 -10 -11 -10 -11 -11 -11 -11 -11 -11 -10 -10 -11 -11 -11
1 0 -0 -1 -1 -2 -2 -2 -3 -3 -3 -3 -4 -5 -6 -7 -8 -9 -9 -9 -8 -9 -9 -9 -9 -9 -10 -10 -11 -11 -11 -11 -11 -11 -12 -11 -11 -10 -10 -10 -10 -10 -10
0 -0 -1 -1 -2 -3 -3 -3 -3 -3 -4 -5 -6 -7 -8 -8 -9 -9 -9 -9 -9 -9 -9 -9 -10 -10 -11 -11 -11 -11 -11 -11 -12 -12 -12 -11 -11 -10 -10 -10 -10 -10 -10
-1 -1 -2 -2 -3 -3 -3 -4 -4 -4 -5 -7 -8 -8 -9 -9 -9 -9 -9 -10 -10 -10 -10 -10 -11 -11 -11 -11 -11 -10 -11 -12 -12 -12 -12 -11 -11 -10 -10 -10 -11 -10 -10
-2 -2 -3 -3 -3 -3 -4 -4 -5 -5 -7 -8 -9 -10 -10 -10 -10 -10 -10 -10 -10 -10 -11 -11 -11 -11 -11 -11 -11 -11 -11 -12 -12 -11 -11 -11 -11 -11 -10 -10 -10 -10 -10
-2 -3 -3 -3 -3 -4 -4 -4 -5 -6 -7 -8 -9 -9 -10 -10 -10 -10 -10 -10 -11 -11 -12 -12 -12 -12 -12 -12 -12 -12 -12 -12 -11 -11 -10 -10 -10 -10 -10 -10 -10 -10 -10
-3 -3 -3 -4 -4 -4 -5 -6 -6 -6 -7 -8 -8 -9 -10 -10 -11 -11 -11 -11 -12 -12 -12 -13 -13 -13 -12 -12 -12 -12 -12 -11 -11 -10 -10 -10 -10 -10 -10 -10 -10 -10 -10
-3 -4 -4 -4 -5 -5 -6 -7 -8 -8 -9 -8 -9 -9 -10 -10 -11 -11 -12 -12 -11 -12 -13 -13 -13 -12 -12 -12 -12 -12 -11 -10 -10 -10 -9 -9 -9 -10 -10 -10 -10 -10 -9
-4 -4 -4 -5 -5 -6 -7 -8 -8 -9 -9 -9 -9 -9 -10 -11 -11 -11 -12 -12 -13 -13 -13 -13 -12 -12 -11 -11 -11 -11 -11 -10 -10 -9 -9 -9 -9 -9 -9 -9 -9 -9 -9
-4 -5 -5 -5 -6 -6 -7 -8 -9 -9 -9 -10 -10 -10 -11 -11 -11 -11 -11 -13 -13 -13 -13 -12 -11 -11 -11 -11 -10 -10 -10 -9 -9 -8 -8 -8 -8 -8 -8 -9 -9 -9 -9
-5 -5 -6 -6 -7 -8 -8 -9 -9 -10 -10 -10 -10 -10 -12 -12 -12 -12 -12 -13 -13 -13 -12 -12 -11 -10 -10 -10 -10 -9 -9 -9 -8 -8 -8 -8 -8 -8 -8 -8 -8 -8 -8
-5 -6 -6 -7 -7 -8 -9 -9 -10 -10 -10 -10 -10 -10 -11 -11 -12 -12 -12 -12 -12 -12 -12 -11 -10 -10 -10 -10 -10 -9 -8 -8 -8 -7 -7 -7 -7 -8 -8 -8 -8 -8 -8
-6 -6 -7 -7 -8 -9 -9 -9 -10 -10 -11 -11 -11 -11 -11 -11 -12 -12 -12 -12 -12 -11 -11 -10 -10 -9 -9 -9 -9 -8 -8 -8 -7 -7 -7 -7 -7 -7 -7 -7 -7 -7 -8
-6 -7 -7 -8 -9 -9 -9 -10 -11 -11 -11 -11 -12 -11 -11 -12 -12 -12 -12 -11 -11 -11 -10 -10 -10 -9 -9 -8 -8 -7 -7 -7 -7 -7 -7 -7 -7 -7 -7 -7 -7 -7 -7
-7 -8 -8 -9 -9 -10 -10 -10 -11 -11 -11 -12 -12 -11 -11 -11 -12 -11 -11 -11 -11 -10 -10 -10 -9 -9 -8 -8 -7 -7 -7 -7 -7 -7 -7 -7 -7 -7 -7 -7 -6 -6 -7
-8 -8 -9 -9 -10 -10 -11 -11 -11 -11 -12 -11 -11 -11 -11 -11 -11 -11 -11 -11 -11 -10 -10 -9 -9 -8 -8 -7 -7 -7 -7 -7 -7 -7 -7 -7 -7 -7 -7 -7 -6 -6 -6
Wind_Speed
9 9 10 9 8 8 6 5 4 3 3 4 5 5 6 7 7 7 8 9 8 8 7 7 7 8 8 8 9 9 10 10 15 17 12 9 9 11 13 8 11 10 15
9 9 9 8 8 7 6 4 4 3 3 4 5 6 7 8 8 8 9 9 9 9 8 7 7 9 10 10 9 10 11 10 12 18 17 13 12 11 10 10 14 16 11
9 9 8 8 7 6 5 4 3 3 4 5 5 7 8 8 9 9 9 9 9 9 8 7 7 9 11 11 12 12 10 11 9 14 18 16 13 9 11 15 16 13 18
9 9 8 7 6 5 4 3 3 3 4 6 6 7 8 8 9 9 8 9 9 8 7 7 8 9 11 13 12 9 10 12 12 14 16 16 11 9 11 14 18 12 14
10 8 7 5 5 4 3 2 3 4 5 6 7 8 8 8 9 12 10 9 9 9 7 8 9 14 19 17 15 13 14 14 14 15 17 15 13 13 14 14 18 17 13
10 8 6 5 4 3 3 3 4 5 6 6 7 8 9 10 18 21 18 10 9 9 9 9 10 13 17 23 26 27 25 20 18 16 15 16 18 16 15 17 18 19 17
9 7 6 5 4 3 3 4 5 5 6 7 8 8 9 11 20 22 23 14 10 10 10 11 13 14 19 13 21 26 23 28 23 18 17 17 19 19 19 20 18 19 20
8 7 6 5 4 4 4 4 4 4 5 6 7 8 8 11 20 20 23 12 9 10 11 11 11 11 14 19 17 15 14 11 18 16 12 14 16 15 16 18 19 19 17
7 6 5 5 4 3 3 4 3 4 6 6 7 8 8 11 17 20 21 9 9 11 11 11 12 12 23 29 21 16 13 14 22 25 26 25 30 29 23 16 15 15 17
7 6 5 4 3 2 3 3 3 5 6 7 7 8 9 9 16 21 21 7 9 10 9 10 19 22 28 28 16 11 15 17 16 17 19 21 19 20 24 15 14 15 16
7 6 5 4 3 3 3 3 5 6 7 7 8 8 8 10 16 20 21 11 10 11 11 10 11 24 25 25 24 13 20 21 14 15 15 15 14 13 13 13 13 14 15
6 5 4 4 4 4 4 5 5 6 7 7 7 8 6 8 13 17 22 21 20 11 11 9 11 23 26 26 20 22 27 22 13 14 14 14 13 14 14 14 16 16 16
6 5 5 5 4 4 4 5 5 6 6 6 6 7 7 7 10 20 22 23 23 14 11 19 21 24 23 16 22 25 20 12 13 14 14 14 12 13 14 14 14 14 16
6 5 4 4 4 4 4 4 5 5 6 6 7 8 8 7 7 8 9 11 16 13 10 13 21 21 18 20 18 15 11 12 14 13 14 14 14 12 13 13 14 14 13
6 4 3 2 3 4 4 4 5 4 8 9 6 7 9 9 13 23 18 12 12 13 14 6 8 10 10 12 12 12 12 13 13 13 14 15 15 14 14 13 12 13 13
4 2 1 2 3 4 5 5 9 11 15 16 16 15 12 17 24 24 24 25 24 24 15 10 10 10 11 14 14 14 14 13 13 14 13 13 14 14 15 13 12 12 13
3 1 2 3 4 4 4 5 7 9 13 15 17 19 18 21 23 23 24 24 22 20 11 9 10 12 13 13 13 13 14 13 13 13 13 13 13 13 13 13 13 12 12
2 2 3 3 4 4 4 5 6 7 8 7 11 17 20 21 21 21 23 19 13 12 10 11 11 12 13 13 13 13 14 14 13 13 13 13 12 13 13 13 12 12 12
2 2 3 3 3 4 5 5 6 7 7 8 7 10 18 19 19 19 18 10 11 12 12 12 12 12 13 13 13 13 13 14 14 14 13 13 12 12 12 12 11 15 12
2 6 5 4 4 5 5 5 5 6 7 8 9 9 10 11 10 12 12 10 11 12 13 13 13 13 13 13 13 13 13 14 14 13 13 13 12 12 12 12 10 10 9
2 4 7 5 4 5 5 5 5 6 7 8 8 12 18 11 11 12 11 11 12 12 13 13 13 13 12 12 12 13 14 14 13 13 12 12 12 12 11 9 9 8 7
2 3 4 4 4 4 5 5 6 7 8 9 9 11 17 10 10 11 11 12 12 12 12 13 13 13 12 11 13 13 14 15 14 13 13 13 12 11 9 7 7 6 6
3 4 4 4 4 7 7 5 6 7 8 8 9 11 11 10 10 11 12 12 13 13 12 13 13 13 13 13 13 13 14 14 15 15 15 14 11 8 7 6 7 6 5
3 4 4 4 4 4 5 6 6 8 9 9 10 11 11 11 12 12 12 11 12 12 13 13 14 17 20 17 15 14 14 16 17 15 15 9 7 7 7 6 6 6 4
4 4 4 4 5 5 6 6 6 6 8 10 11 11 11 11 11 11 10 11 12 14 16 16 14 15 20 24 22 18 22 28 21 10 7 7 7 8 7 7 6 4 2
4 4 4 4 5 5 6 6 6 7 9 9 9 10 10 11 11 10 11 11 13 14 15 15 17 21 24 20 21 26 28 22 16 15 9 5 6 6 7 5 5 3 3
Wind_Direction
117 112 111 109 109 109 112 117 112 84 50 18 349 337 331 327 323 317 308 306 301 300 299 303 300 304 309 308 303 298 294 289 292 300 299 296 288 285 293 281 286 280 284
116 110 108 109 111 113 116 111 94 61 21 351 337 330 327 325 318 311 306 307 299 300 295 295 295 312 310 308 303 299 296 287 286 297 303 303 292 287 292 296 303 298 287
115 112 110 113 118 122 117 96 66 31 353 339 334 331 327 321 313 304 296 296 297 292 286 283 288 304 309 305 300 295 293 297 293 297 299 299 296 301 304 300 296 293 294
118 117 120 128 131 127 112 83 41 4 343 338 337 332 323 317 307 301 303 302 297 289 275 269 277 294 301 301 300 295 303 302 298 297 299 299 298 299 299 305 306 297 293
124 125 132 133 127 118 100 55 17 360 352 347 342 333 327 323 321 326 320 311 307 298 277 265 274 304 309 308 309 312 308 304 304 304 304 306 309 310 307 306 303 302 293
131 132 131 128 123 112 82 40 17 4 354 350 340 328 324 332 334 336 335 322 315 305 288 278 288 299 302 310 311 308 307 308 308 308 311 309 305 305 305 304 304 304 301
128 129 132 131 118 94 63 36 13 355 347 337 328 322 317 321 338 341 340 342 333 321 307 302 308 312 314 302 297 303 306 309 312 311 303 302 305 307 306 304 302 299 298
127 131 134 126 109 81 50 20 350 336 333 319 311 312 314 327 341 342 342 347 327 315 308 304 298 294 297 302 304 309 308 313 308 304 299 301 304 302 300 302 300 298 294
128 129 125 118 104 69 22 352 333 323 317 306 305 312 317 323 334 336 337 320 316 312 307 304 308 303 306 315 321 320 321 312 314 314 313 311 310 310 308 307 304 303 301
127 124 118 112 99 51 0 335 319 309 299 305 313 314 312 309 323 331 329 308 307 306 301 299 310 314 317 326 330 328 319 314 317 319 316 312 308 304 307 306 302 300 299
123 117 106 88 57 32 4 329 313 313 316 319 315 312 308 313 326 329 326 324 310 311 313 312 311 321 328 331 331 323 313 321 325 318 313 309 308 306 305 301 297 295 296
115 105 85 57 33 27 0 330 324 326 324 321 318 316 306 309 325 326 328 328 326 320 318 316 321 329 331 331 329 321 324 328 321 314 313 313 312 309 306 303 298 293 287
103 86 64 45 34 18 351 334 328 327 325 322 320 321 323 317 319 328 331 333 333 332 321 326 331 332 333 330 323 326 329 322 317 316 315 312 308 302 304 305 302 297 292
97 79 61 46 12 350 342 329 325 324 323 321 327 328 325 320 313 315 322 325 331 328 323 330 334 331 330 327 326 324 321 316 319 316 313 311 310 309 311 312 311 312 309
95 80 55 15 338 330 332 325 330 316 326 335 328 321 327 326 329 337 338 334 338 329 336 330 325 327 327 327 326 324 323 322 320 316 314 314 314 315 314 315 311 312 312
102 81 5 327 323 324 323 325 341 342 338 341 340 337 330 331 333 337 339 341 340 338 339 328 327 325 325 325 324 322 322 320 319 316 313 312 313 314 314 315 315 316 318
119 59 329 328 323 322 324 324 324 330 335 339 339 337 335 335 336 339 341 341 340 339 336 326 325 325 323 320 319 318 317 316 314 313 311 311 312 312 313 315 318 321 322
81 6 349 324 321 319 315 311 309 316 323 321 328 333 336 336 338 341 342 341 335 336 331 328 324 322 319 318 317 317 316 315 315 313 311 311 311 312 313 314 317 321 324
48 344 331 325 321 314 309 306 306 311 318 319 318 328 337 336 339 339 343 337 330 331 330 326 321 318 317 316 315 314 313 312 311 311 310 310 311 312 312 311 314 321 328
23 356 357 344 329 320 310 307 314 320 322 322 325 329 328 334 339 336 336 332 331 328 325 321 318 315 315 314 313 313 313 312 311 309 308 309 309 310 310 309 314 319 323
5 344 350 342 320 308 304 310 320 323 321 321 321 326 337 341 333 328 329 330 330 325 322 319 316 314 313 313 313 311 310 308 306 304 304 305 307 308 306 308 313 314 319
342 330 325 317 310 309 319 325 322 318 317 320 324 326 334 334 326 325 326 327 325 321 318 315 312 310 311 312 312 311 308 305 302 301 301 302 302 301 303 312 316 319 324
340 329 323 317 309 328 335 320 320 321 321 322 325 329 328 327 325 324 325 324 321 318 316 314 311 310 312 312 309 304 300 296 294 294 295 295 297 303 312 313 314 320 329
337 328 320 315 312 314 317 319 319 323 325 326 327 324 321 321 321 322 323 319 317 315 314 313 310 310 311 315 313 307 298 293 293 292 293 306 320 321 318 314 314 320 328
341 332 324 318 317 319 319 312 307 309 320 325 323 319 317 318 318 318 318 317 316 315 313 314 313 315 315 315 312 309 306 310 319 331 333 329 324 324 323 320 324 334 358
343 334 324 318 315 313 312 310 311 316 319 318 313 311 313 315 316 317 316 315 317 317 314 315 314 316 316 315 312 314 318 331 352 355 349 327 327 328 329 327 337 355 31
Height
1468 1471 1473 1475 1477 1478 1479 1480 1479 1478 1476 1474 1471 1468 1465 1461 1457 1453 1449 1445 1440 1436 1432 1428 1423 1418 1412 1407 1401 1397 1393 1388 1379 1368 1364 1361 1357 1353 1348 1344 1340 1336 1332
1467 1469 1471 1473 1475 1477 1477 1477 1476 1475 1473 1470 1467 1464 1460 1456 1452 1448 1443 1439 1435 1430 1426 1422 1417 1412 1406 1400 1395 1391 1387 1382 1376 1366 1357 1352 1348 1343 1338 1333 1329 1326 1320
1465 1468 1470 1472 1474 1475 1475 1474 1473 1472 1469 1466 1463 1460 1456 1451 1447 1443 1439 1434 1429 1425 1421 1416 1411 1406 1399 1394 1390 1385 1380 1375 1370 1362 1352 1346 1339 1334 1329 1323 1317 1311 1307
1464 1466 1469 1471 1472 1473 1472 1472 1470 1468 1465 1463 1460 1456 1451 1447 1443 1438 1433 1428 1424 1419 1415 1411 1406 1400 1394 1389 1384 1380 1375 1368 1362 1355 1346 1338 1331 1326 1322 1314 1304 1299 1294
1463 1465 1468 1469 1470 1470 1470 1468 1466 1464 1462 1459 1456 1452 1447 1442 1438 1433 1427 1423 1418 1414 1409 1405 1400 1395 1390 1386 1381 1375 1369 1362 1355 1348 1340 1332 1325 1319 1313 1306 1297 1289 1283
1461 1464 1466 1467 1468 1468 1466 1465 1463 1461 1458 1455 1451 1447 1443 1438 1433 1427 1422 1417 1412 1408 1403 1398 1394 1389 1384 1380 1375 1370 1364 1357 1349 1341 1333 1326 1319 1313 1305 1299 1292 1283 1273
1459 1461 1463 1465 1465 1464 1463 1461 1460 1457 1455 1452 1448 1443 1438 1433 1427 1422 1417 1412 1406 1401 1397 1392 1387 1382 1378 1372 1366 1361 1356 1350 1344 1337 1328 1320 1312 1306 1299 1291 1285 1277 1268
1457 1459 1461 1462 1462 1461 1460 1458 1456 1454 1451 1447 1443 1438 1433 1427 1422 1416 1411 1405 1400 1395 1391 1386 1381 1375 1370 1365 1359 1352 1346 1340 1336 1329 1322 1314 1306 1299 1293 1285 1277 1268 1260
1456 1457 1459 1459 1459 1458 1457 1455 1453 1450 1447 1443 1438 1433 1427 1422 1416 1411 1406 1400 1395 1390 1386 1382 1377 1371 1365 1359 1352 1344 1337 1331 1326 1320 1313 1306 1298 1291 1285 1277 1269 1262 1252
1454 1456 1456 1456 1456 1455 1454 1452 1449 1446 1442 1438 1434 1429 1423 1417 1412 1408 1403 1397 1390 1385 1380 1375 1371 1365 1359 1353 1346 1338 1330 1323 1316 1308 1301 1294 1288 1282 1277 1271 1264 1256 1247
1452 1453 1454 1454 1454 1453 1451 1449 1446 1442 1438 1433 1429 1424 1419 1413 1408 1403 1399 1394 1388 1381 1375 1369 1364 1359 1353 1347 1341 1333 1326 1318 1310 1301 1293 1286 1281 1275 1269 1264 1258 1252 1243
1451 1451 1452 1452 1451 1450 1448 1445 1442 1437 1433 1427 1422 1418 1413 1409 1404 1399 1396 1391 1386 1379 1372 1365 1359 1354 1348 1341 1334 1327 1321 1313 1304 1296 1289 1282 1276 1268 1262 1256 1250 1244 1238
1449 1450 1450 1450 1449 1447 1444 1441 1437 1432 1427 1422 1417 1412 1407 1403 1400 1395 1391 1386 1380 1374 1367 1361 1355 1348 1341 1333 1327 1321 1314 1307 1300 1293 1286 1279 1272 1264 1257 1250 1243 1237 1230
1448 1448 1448 1447 1446 1444 1440 1436 1432 1427 1422 1418 1413 1408 1403 1399 1394 1390 1385 1379 1374 1368 1361 1354 1349 1342 1336 1329 1322 1316 1309 1304 1298 1291 1283 1276 1269 1261 1254 1247 1240 1232 1225
1446 1446 1445 1444 1443 1440 1437 1433 1428 1425 1421 1416 1411 1406 1400 1394 1391 1387 1381 1374 1368 1362 1356 1348 1342 1336 1329 1323 1317 1311 1306 1300 1294 1287 1281 1273 1266 1259 1252 1245 1238 1231 1225
1444 1444 1443 1441 1439 1436 1433 1430 1426 1423 1418 1413 1409 1404 1398 1393 1387 1382 1376 1370 1364 1358 1351 1345 1339 1333 1327 1320 1314 1308 1302 1296 1291 1284 1278 1271 1264 1257 1250 1243 1237 1231 1224
1442 1441 1440 1438 1436 1432 1429 1425 1421 1418 1415 1410 1405 1400 1395 1389 1383 1378 1372 1365 1359 1354 1348 1342 1337 1331 1324 1318 1312 1305 1299 1293 1288 1282 1275 1269 1263 1256 1249 1242 1236 1230 1224
1440 1439 1437 1435 1432 1429 1426 1422 1418 1413 1408 1404 1401 1396 1391 1385 1379 1373 1367 1360 1354 1350 1345 1340 1334 1328 1322 1316 1309 1303 1296 1290 1284 1279 1273 1267 1260 1254 1248 1242 1236 1230 1225
1438 1437 1435 1432 1429 1426 1423 1419 1415 1410 1405 1400 1395 1391 1386 1380 1375 1370 1363 1357 1352 1347 1342 1337 1331 1325 1319 1313 1307 1300 1294 1288 1282 1276 1270 1264 1258 1253 1247 1242 1236 1231 1226
1436 1434 1432 1429 1426 1423 1419 1415 1411 1406 1402 1397 1392 1386 1380 1375 1370 1365 1360 1355 1350 1345 1339 1334 1328 1323 1317 1310 1304 1297 1291 1285 1279 1274 1268 1262 1257 1252 1247 1242 1237 1232 1227
1433 1431 1429 1426 1423 1420 1416 1412 1408 1403 1399 1394 1389 1384 1380 1374 1368 1362 1357 1352 1347 1342 1337 1331 1326 1320 1314 1307 1301 1295 1289 1283 1277 1272 1266 1261 1256 1251 1246 1242 1238 1233 1229
1430 1428 1425 1422 1419 1416 1412 1409 1405 1400 1396 1391 1386 1381 1376 1371 1365 1360 1355 1350 1345 1340 1335 1329 1323 1317 1311 1305 1298 1292 1286 1280 1275 1269 1264 1259 1254 1250 1246 1242 1238 1234 1231
1426 1424 1421 1418 1415 1412 1408 1405 1401 1397 1392 1387 1382 1377 1372 1367 1362 1357 1352 1347 1342 1337 1332 1327 1321 1314 1308 1302 1296 1290 1284 1279 1273 1267 1261 1257 1253 1250 1246 1243 1239 1236 1232
1423 1420 1417 1414 1411 1407 1404 1400 1397 1393 1388 1384 1379 1374 1369 1364 1359 1354 1349 1344 1339 1334 1329 1324 1319 1312 1305 1300 1294 1289 1283 1278 1271 1265 1261 1258 1254 1250 1247 1243 1241 1237 1235
1419 1417 1414 1411 1407 1403 1400 1397 1393 1389 1385 1380 1375 1370 1365 1360 1355 1351 1346 1341 1336 1331 1327 1322 1316 1310 1303 1298 1293 1287 1281 1276 1270 1266 1261 1258 1254 1251 1248 1245 1242 1240 1237
1415 1412 1409 1406 1403 1400 1396 1393 1389 1385 1380 1376 1371 1367 1362 1357 1352 1348 1343 1338 1333 1329 1324 1320 1314 1308 1302 1297 1291 1286 1280 1275 1270 1265 1262 1259 1256 1252 1249 1247 1244 1242 1240